TimeEDT,TemperatureF,Dew PointF,Humidity,Sea Level PressureIn,VisibilityMPH,Wind Direction,Wind SpeedMPH,Gust SpeedMPH,PrecipitationIn,Events,Conditions,WindDirDegrees,DateUTC
12:52 AM,62.1,59.0,90,30.15,7.0,Calm,Calm,-,N/A,,Clear,0,2013-08-21 04:52:00
1:52 AM,60.1,57.9,93,30.15,6.0,South,3.5,-,N/A,,Clear,170,2013-08-21 05:52:00
2:52 AM,59.0,57.0,93,30.16,5.0,Calm,Calm,-,N/A,,Clear,0,2013-08-21 06:52:00
3:52 AM,57.9,55.9,93,30.16,4.0,Calm,Calm,-,N/A,,Clear,0,2013-08-21 07:52:00
4:52 AM,57.0,55.9,96,30.17,4.0,Calm,Calm,-,N/A,,Clear,0,2013-08-21 08:52:00
5:52 AM,57.0,55.0,93,30.18,5.0,Calm,Calm,-,N/A,,Clear,0,2013-08-21 09:52:00
6:52 AM,57.0,55.0,93,30.19,3.0,Calm,Calm,-,N/A,,Clear,0,2013-08-21 10:52:00
7:52 AM,63.0,59.0,87,30.20,7.0,Calm,Calm,-,N/A,,Clear,0,2013-08-21 11:52:00
8:52 AM,69.1,61.0,75,30.19,10.0,Calm,Calm,-,N/A,,Clear,0,2013-08-21 12:52:00
9:52 AM,75.9,59.0,56,30.19,10.0,Calm,Calm,-,N/A,,Clear,0,2013-08-21 13:52:00
10:52 AM,77.0,59.0,54,30.19,10.0,Variable,5.8,-,N/A,,Clear,0,2013-08-21 14:52:00
11:52 AM,79.0,59.0,50,30.18,10.0,WSW,4.6,-,N/A,,Clear,250,2013-08-21 15:52:00
12:52 PM,81.0,57.9,45,30.17,10.0,West,5.8,-,N/A,,Clear,270,2013-08-21 16:52:00
1:52 PM,82.0,59.0,45,30.15,10.0,Variable,4.6,-,N/A,,Clear,0,2013-08-21 17:52:00
2:52 PM,82.9,57.9,42,30.13,10.0,Calm,Calm,-,N/A,,Clear,0,2013-08-21 18:52:00
3:52 PM,82.9,59.0,44,30.12,10.0,SW,8.1,-,N/A,,Clear,230,2013-08-21 19:52:00
4:52 PM,82.9,60.1,46,30.11,10.0,Calm,Calm,-,N/A,,Partly Cloudy,0,2013-08-21 20:52:00
5:52 PM,82.9,57.9,42,30.10,10.0,West,5.8,-,N/A,,Clear,260,2013-08-21 21:52:00
6:52 PM,80.1,59.0,48,30.09,10.0,Variable,3.5,-,N/A,,Clear,0,2013-08-21 22:52:00
7:52 PM,73.0,61.0,66,30.09,10.0,South,3.5,-,N/A,,Clear,190,2013-08-21 23:52:00
8:52 PM,66.9,63.0,87,30.10,10.0,Calm,Calm,-,N/A,,Clear,0,2013-08-22 00:52:00
9:52 PM,64.0,61.0,90,30.09,8.0,Calm,Calm,-,N/A,,Clear,0,2013-08-22 01:52:00
10:52 PM,64.0,60.1,87,30.08,7.0,Calm,Calm,-,N/A,,Clear,0,2013-08-22 02:52:00
11:52 PM,63.0,60.1,90,30.07,6.0,Calm,Calm,-,N/A,,Clear,0,2013-08-22 03:52:00